Tracking 25995 objects as of 19-Aug-2022
HD Live streaming from Space Station
objects crossing your sky now

THOR ABLESTAR DEB

Track THOR ABLESTAR DEB now!
10-day predictions


NORAD ID: 656
Int'l Code: 1961-015HH
Perigee: 879.4 km
Apogee: 1,909.7 km
Inclination: 66.3 °
Period: 113.5 minutes
Semi major axis: 7765 km
RCS: 0.0195 m2 (small)
Launch date: June 29, 1961
Source: United States (US)
Launch site: AIR FORCE EASTERN TEST RANGE (AFETR)

Note: This is SATELLITE DEBRIS
aabbcc
Your satellite tracking list
Your tracking list is empty




NASA's NSSDC Master Catalog

Two Line Element Set (TLE):
1 00656U 61015HH  22230.22881453  .00000554  00000-0  12995-2 0  9994
2 00656  66.2897 173.6834 0663357  84.3072 283.3144 12.68664934789236
Source of the keplerian elements: AFSPC